Tracking 20472 objects as of 28-Feb-2020
HD Live streaming from Space Station
objects crossing your sky now

CZ-3B DEB

Track CZ-3B DEB now!


NORAD ID: 40814
Int'l Code: 2010-042X
Perigee: 883.0 km
Apogee: 41,375.2 km
Inclination: 27.4 °
Period: 756.4 minutes
Semi major axis: 27500 km
RCS: Unknown
Launch date: September 4, 2010
Source: People's Republic of China (PRC)
Launch site: Xichang Space Center, China (XSC)

Note: This is SATELLITE DEBRIS
aabbcc
Your satellite tracking list
Your tracking list is empty




NASA's NSSDC Master Catalog

Two Line Element Set (TLE):
1 40814U 10042X   20054.20850989 -.00000461  00000-0 -13974-1 0  9994
2 40814  27.4451  37.1345 7362183 244.4767  25.9561  1.90371157 36831
Source of the keplerian elements: AFSPC